Temp
17 17 17 17 17 15 15 16 16 16 16 16 16 16 16 17 17 17 16 16 16 16 16 16 15 15 15 15 15 15 16 16 16 15 15 15 15 15 14 14 15 15 14
17 17 17 17 18 15 15 16 16 16 16 16 16 16 16 16 17 17 17 16 16 16 16 16 16 15 14 15 15 15 15 15 15 15 15 15 15 14 14 14 15 15 14
16 17 17 17 17 17 16 16 16 16 16 15 15 15 16 16 16 16 16 15 15 15 14 15 15 16 15 15 14 14 14 14 14 14 14 15 14 14 14 14 14 14 14
16 16 16 16 16 16 16 16 16 16 16 15 15 15 16 16 16 15 15 15 15 15 14 14 15 15 15 15 14 14 14 14 14 13 14 14 14 14 14 14 13 13 14
17 15 15 16 16 16 15 16 15 15 15 15 15 16 16 16 15 15 15 15 15 15 15 15 15 15 15 14 14 14 13 14 13 13 13 13 14 14 13 13 14 14 14
17 17 15 15 16 16 16 15 15 15 15 15 15 16 16 15 15 15 15 15 15 15 15 15 15 15 14 14 14 13 13 13 14 14 13 13 13 13 13 13 14 14 14
17 16 16 15 15 15 16 15 15 15 15 15 16 16 15 15 15 14 15 14 14 14 15 15 15 15 14 14 14 13 13 13 13 13 13 13 13 12 12 13 13 14 14
16 16 15 15 15 15 15 15 15 15 15 15 15 15 15 15 14 14 15 14 14 14 15 16 15 15 14 14 13 13 13 13 13 13 13 13 12 12 13 13 13 13 13
15 15 16 15 15 14 15 15 15 15 15 15 15 15 14 14 13 14 15 14 14 15 15 15 15 14 14 13 13 12 13 12 13 14 14 13 13 12 12 12 13 12 11
16 15 15 15 15 15 14 14 14 15 15 15 15 14 14 14 15 15 15 14 14 15 15 15 15 14 13 12 12 13 12 13 13 13 13 12 12 13 13 13 12 11 11
15 15 15 15 15 14 14 14 14 14 15 14 14 14 13 13 15 16 15 15 15 15 15 14 13 12 13 12 12 12 13 13 13 12 12 12 13 13 11 12 11 10 11
14 15 14 14 14 14 14 14 14 13 14 14 14 14 13 14 15 15 15 15 15 13 10 10 11 12 12 12 12 12 12 12 12 12 11 11 12 10 10 10 11 10 11
15 14 14 13 13 13 13 13 14 13 13 14 13 13 13 14 14 14 15 14 13 11 10 10 10 12 12 12 12 12 12 12 12 11 10 12 11 9 10 10 10 10 10
14 14 14 13 12 13 12 13 13 13 13 13 13 13 13 13 14 14 14 14 11 10 10 10 11 12 12 12 12 11 12 12 11 11 10 10 10 9 9 9 9 9 9
14 14 13 13 12 12 12 11 12 12 13 13 13 13 13 14 14 14 14 13 11 10 11 10 11 11 11 11 11 12 12 12 11 11 11 8 9 9 10 9 9 8 9
13 13 13 13 12 12 12 12 11 12 11 12 11 12 13 13 14 14 14 13 11 10 10 10 11 11 11 11 11 11 11 11 11 11 11 8 8 9 9 9 9 8 8
12 13 12 12 12 11 11 12 12 12 12 11 11 10 12 13 13 14 14 12 11 10 10 10 10 11 11 11 11 11 11 11 11 11 10 8 8 8 8 8 8 7 8
11 11 12 12 11 10 11 11 11 12 12 12 10 9 12 13 13 13 13 12 11 10 10 10 10 10 10 10 10 10 10 10 10 10 9 9 9 9 9 8 8 8 8
11 11 11 11 10 10 10 10 11 10 9 9 10 9 12 12 12 13 13 12 11 10 10 10 10 10 10 10 10 10 10 10 10 9 9 9 9 9 9 10 10 10 10
11 11 11 10 10 9 9 8 8 7 7 8 12 9 9 11 11 12 12 11 11 10 10 10 10 10 10 10 10 9 9 9 9 9 9 9 9 9 9 9 9 9 9
11 10 10 10 9 9 8 7 6 6 7 8 10 8 9 11 11 11 11 10 11 10 10 10 10 10 9 9 9 9 8 8 8 8 9 9 10 9 9 9 9 9 9
10 10 9 9 8 8 8 7 6 7 7 7 10 8 8 9 10 11 10 10 10 10 10 10 9 9 9 9 9 8 7 7 8 8 8 8 9 9 9 9 9 9 9
10 10 8 8 7 8 7 7 7 6 7 7 8 9 10 8 9 10 10 10 10 10 10 9 9 9 9 9 9 9 7 8 7 7 7 8 8 8 9 9 9 9 9
10 9 8 7 7 7 7 7 7 7 6 6 9 10 10 7 7 9 9 9 9 9 9 9 9 9 9 9 9 10 10 10 8 7 7 7 7 8 8 8 8 9 9
9 8 7 7 7 7 6 6 7 6 6 6 6 8 6 7 6 8 8 8 9 9 9 9 9 9 9 10 10 9 10 10 10 10 7 7 6 7 7 7 8 8 8
9 8 7 7 6 6 6 6 6 6 6 6 5 6 5 5 6 7 8 8 8 8 8 8 9 9 9 9 10 9 10 10 10 10 10 8 7 7 7 7 7 7 7
Height
1508 1507 1508 1508 1509 1511 1513 1515 1516 1517 1518 1521 1523 1525 1526 1528 1529 1530 1532 1533 1534 1535 1536 1538 1539 1541 1542 1544 1545 1546 1548 1548 1549 1550 1551 1552 1552 1553 1553 1554 1554 1554 1555
1508 1508 1508 1509 1509 1511 1513 1515 1516 1518 1519 1521 1522 1524 1526 1528 1529 1530 1532 1533 1534 1535 1537 1538 1540 1541 1543 1545 1546 1548 1549 1550 1551 1552 1552 1553 1553 1554 1555 1555 1556 1556 1556
1508 1508 1508 1509 1509 1510 1513 1515 1516 1518 1519 1521 1523 1524 1526 1528 1529 1531 1532 1534 1535 1537 1538 1539 1540 1542 1543 1545 1547 1549 1550 1551 1552 1553 1553 1554 1554 1555 1556 1557 1557 1558 1558
1508 1508 1509 1509 1509 1510 1512 1514 1515 1517 1519 1520 1522 1523 1525 1527 1529 1531 1532 1534 1535 1537 1539 1540 1541 1542 1544 1546 1548 1550 1551 1553 1554 1555 1555 1556 1555 1556 1557 1558 1558 1559 1559
1510 1507 1508 1509 1509 1510 1511 1512 1514 1516 1518 1519 1520 1522 1524 1526 1529 1530 1532 1533 1535 1536 1538 1540 1541 1543 1544 1546 1549 1551 1552 1553 1554 1555 1556 1558 1557 1558 1558 1559 1560 1560 1561
1507 1508 1506 1507 1508 1508 1510 1511 1512 1514 1516 1518 1519 1521 1523 1525 1527 1529 1531 1533 1535 1536 1538 1539 1540 1542 1544 1547 1549 1551 1552 1553 1555 1556 1557 1558 1559 1559 1559 1560 1561 1561 1561
1501 1505 1505 1505 1506 1507 1508 1509 1510 1512 1514 1516 1517 1519 1521 1524 1525 1527 1530 1532 1535 1536 1537 1538 1540 1542 1544 1547 1549 1551 1552 1553 1555 1556 1557 1558 1559 1560 1561 1561 1561 1562 1562
1499 1502 1503 1503 1504 1505 1506 1507 1508 1510 1512 1514 1515 1517 1519 1522 1524 1525 1528 1531 1533 1535 1536 1537 1539 1541 1543 1546 1548 1550 1552 1554 1555 1556 1557 1559 1560 1560 1561 1561 1562 1562 1561
1496 1498 1499 1500 1500 1501 1502 1504 1506 1507 1510 1512 1513 1516 1517 1519 1521 1523 1526 1529 1531 1533 1534 1536 1538 1540 1543 1546 1548 1550 1552 1554 1556 1556 1558 1559 1560 1561 1561 1561 1562 1562 1563
1494 1492 1494 1495 1496 1497 1498 1500 1502 1504 1506 1509 1511 1513 1515 1517 1518 1521 1524 1527 1529 1531 1532 1534 1537 1539 1542 1545 1547 1549 1551 1553 1556 1557 1558 1559 1560 1560 1560 1561 1562 1564 1564
1490 1489 1489 1491 1491 1492 1493 1495 1498 1501 1504 1506 1509 1510 1512 1514 1515 1518 1522 1525 1527 1528 1530 1532 1535 1538 1541 1544 1546 1548 1551 1553 1555 1557 1558 1559 1559 1560 1560 1562 1564 1566 1566
1485 1485 1483 1486 1486 1487 1488 1490 1492 1495 1499 1502 1504 1506 1508 1510 1513 1515 1519 1522 1524 1526 1529 1531 1533 1536 1540 1543 1545 1549 1550 1552 1555 1557 1558 1559 1559 1560 1561 1563 1565 1566 1567
1481 1480 1480 1480 1482 1482 1483 1485 1487 1490 1494 1497 1500 1501 1504 1507 1509 1512 1515 1519 1522 1526 1528 1530 1532 1534 1539 1542 1545 1549 1550 1553 1555 1556 1557 1558 1559 1561 1563 1566 1567 1567 1568
1475 1475 1475 1474 1476 1477 1478 1480 1482 1485 1489 1492 1494 1496 1498 1501 1505 1508 1511 1516 1520 1523 1526 1529 1530 1534 1538 1542 1547 1547 1551 1553 1554 1555 1556 1557 1558 1562 1564 1566 1567 1567 1569
1468 1468 1469 1470 1471 1471 1473 1476 1478 1479 1478 1484 1483 1489 1492 1496 1500 1504 1508 1512 1517 1522 1525 1528 1530 1534 1538 1542 1544 1546 1550 1552 1554 1554 1555 1557 1559 1561 1564 1566 1567 1568 1569
1463 1463 1464 1465 1465 1466 1467 1470 1473 1474 1473 1470 1474 1477 1484 1489 1495 1499 1503 1508 1513 1519 1524 1527 1530 1534 1538 1541 1542 1545 1548 1551 1553 1554 1554 1556 1559 1561 1563 1565 1566 1568 1569
1459 1459 1458 1459 1459 1460 1461 1464 1467 1469 1468 1466 1472 1472 1472 1481 1489 1495 1498 1503 1509 1515 1521 1526 1530 1534 1538 1541 1541 1543 1546 1549 1551 1553 1555 1556 1558 1561 1563 1564 1565 1567 1569
1456 1454 1454 1454 1455 1454 1455 1457 1460 1460 1460 1458 1460 1453 1459 1472 1484 1490 1494 1499 1505 1511 1518 1523 1527 1531 1536 1539 1541 1542 1545 1549 1551 1553 1555 1556 1559 1561 1562 1564 1565 1567 1568
1451 1450 1450 1450 1451 1450 1450 1449 1452 1452 1452 1456 1462 1458 1453 1467 1479 1485 1488 1494 1501 1508 1514 1519 1524 1528 1532 1537 1541 1543 1544 1548 1551 1552 1554 1557 1559 1562 1564 1565 1566 1567 1568
1446 1446 1446 1446 1446 1446 1446 1444 1445 1445 1449 1452 1451 1456 1455 1463 1474 1481 1482 1489 1498 1505 1510 1516 1520 1525 1529 1534 1538 1543 1545 1547 1550 1552 1554 1556 1558 1561 1563 1565 1566 1568 1569
1442 1442 1442 1442 1442 1442 1441 1440 1439 1440 1442 1441 1451 1455 1451 1460 1470 1476 1478 1484 1494 1501 1506 1512 1517 1521 1525 1530 1535 1541 1545 1548 1550 1551 1552 1555 1557 1559 1561 1564 1565 1567 1568
1440 1438 1438 1438 1439 1439 1438 1438 1438 1438 1438 1443 1442 1459 1449 1460 1466 1469 1474 1482 1489 1497 1504 1509 1512 1516 1522 1526 1530 1537 1543 1548 1549 1550 1552 1553 1555 1558 1560 1562 1563 1565 1567
1438 1436 1435 1435 1436 1436 1436 1437 1436 1437 1441 1441 1441 1452 1456 1457 1463 1466 1474 1480 1488 1493 1499 1505 1509 1514 1516 1522 1529 1531 1538 1540 1544 1548 1550 1551 1553 1555 1558 1559 1562 1564 1565
1433 1433 1433 1433 1432 1430 1431 1432 1432 1434 1435 1436 1439 1445 1445 1454 1463 1466 1475 1480 1486 1492 1497 1502 1506 1511 1515 1518 1525 1529 1531 1532 1537 1543 1547 1549 1551 1553 1555 1556 1558 1560 1562
1432 1430 1430 1429 1426 1427 1427 1427 1428 1428 1429 1435 1437 1428 1445 1453 1467 1468 1474 1480 1486 1491 1495 1499 1504 1509 1514 1517 1520 1525 1528 1530 1533 1535 1539 1544 1547 1550 1553 1554 1555 1558 1559
1430 1428 1426 1426 1422 1421 1422 1424 1424 1424 1428 1427 1429 1427 1444 1460 1468 1463 1471 1478 1485 1490 1494 1496 1501 1506 1512 1517 1520 1524 1526 1528 1530 1533 1536 1538 1543 1545 1549 1551 1551 1554 1556
Wind_Speed
15 13 10 6 14 13 14 16 13 14 16 16 19 18 17 17 16 16 16 14 12 12 13 14 14 15 15 14 14 13 13 14 14 14 14 15 15 15 13 11 11 14 17
12 10 9 9 8 16 14 16 16 15 14 15 18 18 17 16 15 16 14 12 13 12 12 12 13 15 16 15 16 15 15 16 15 14 13 13 13 12 13 11 11 14 14
13 9 10 11 8 16 13 16 17 17 16 16 17 17 18 16 15 15 15 16 15 12 13 12 11 12 16 17 17 17 17 17 16 13 11 11 11 11 10 10 13 17 17
13 7 11 11 12 14 16 15 18 18 17 16 16 17 18 17 16 15 18 19 17 12 11 9 10 11 16 17 18 18 19 15 14 13 12 9 13 12 14 18 17 15 13
4 12 7 11 12 6 19 18 19 19 18 17 15 15 17 18 18 18 19 22 18 12 9 9 9 10 15 17 18 20 20 15 13 13 11 8 17 18 17 14 10 10 7
15 4 9 11 12 12 13 21 20 22 21 20 17 17 18 20 20 18 24 22 16 10 8 7 10 11 15 17 19 22 18 17 15 14 11 9 12 12 10 8 5 3 3
24 13 8 6 15 13 12 20 23 21 23 21 21 21 21 22 21 22 23 20 15 11 9 9 11 13 15 17 21 22 17 15 14 12 10 8 10 9 7 4 1 1 2
21 10 6 10 14 18 16 18 23 25 23 23 23 23 24 24 21 20 22 20 16 13 11 11 13 16 17 18 22 22 18 15 14 13 14 11 11 8 4 3 0 3 6
23 22 18 13 14 18 20 19 25 27 26 25 25 25 26 25 20 20 21 20 17 15 13 13 15 18 19 19 23 20 17 15 17 15 14 12 7 3 3 3 3 12 14
24 28 23 15 17 17 24 22 24 30 28 27 27 27 27 23 21 20 20 20 18 16 15 16 17 20 23 21 25 20 17 15 14 15 13 9 3 2 4 9 18 17 16
22 26 20 13 19 22 23 26 25 31 30 28 29 30 27 26 22 23 20 20 19 17 17 18 20 21 25 24 26 21 18 16 15 11 10 5 2 8 12 18 19 17 15
22 27 27 19 18 21 25 27 30 30 33 31 33 33 30 29 23 21 20 20 20 17 18 19 21 21 27 27 26 21 18 15 13 8 6 6 7 13 14 20 18 15 14
27 24 26 25 20 21 25 28 30 32 34 34 35 36 33 30 25 23 22 22 23 22 21 22 20 26 28 29 27 21 18 15 12 11 10 10 13 15 18 18 14 11 14
27 27 25 26 23 25 22 23 30 32 34 37 39 39 37 31 27 25 24 26 27 24 23 20 20 26 27 28 23 20 18 14 14 12 10 14 15 18 19 16 15 14 12
27 26 25 24 24 24 25 19 21 29 36 35 44 44 40 35 33 27 26 27 31 27 24 24 25 29 33 28 20 22 19 18 15 10 16 17 15 20 17 17 15 15 14
21 24 24 23 25 24 27 21 24 24 24 29 6 39 45 40 36 30 28 29 33 29 28 26 27 29 31 22 19 21 21 19 14 11 17 19 16 17 17 15 13 12 12
20 22 24 25 26 25 26 25 22 26 41 35 31 15 53 44 38 32 30 32 34 31 30 32 25 25 29 23 20 20 19 15 12 14 18 18 18 17 15 13 11 12 10
17 22 26 28 26 25 24 23 24 28 29 37 43 37 51 44 39 34 31 36 37 35 31 34 26 29 28 26 25 22 19 17 14 14 16 16 16 17 16 13 12 12 11
19 23 27 29 28 23 21 21 21 25 22 28 42 27 50 45 40 35 33 37 37 35 34 36 30 31 30 28 29 24 19 18 14 15 16 15 13 12 10 9 8 7 7
21 22 26 29 27 22 19 21 21 21 24 28 17 27 46 46 41 36 35 36 37 36 36 36 32 32 34 31 30 26 20 16 14 14 15 15 14 13 12 10 8 7 6
15 18 25 29 23 22 17 16 18 21 21 24 15 21 39 41 40 38 36 37 38 38 39 36 35 36 35 34 33 27 24 21 18 15 13 13 14 13 12 11 9 8 8
11 13 17 19 20 20 18 16 19 23 16 32 26 12 28 38 41 40 38 41 41 41 38 38 39 40 37 35 35 31 20 20 19 19 18 17 14 14 12 11 11 10 9
14 11 10 18 20 24 24 22 23 20 23 28 42 22 27 33 34 38 37 40 40 40 41 41 40 40 41 37 33 21 12 10 24 21 19 17 16 15 14 13 12 10 9
17 9 5 11 16 23 27 29 30 27 31 34 31 27 33 31 30 34 35 36 39 39 39 39 39 39 38 38 34 21 14 13 17 16 23 19 17 15 15 14 13 11 11
14 7 10 13 10 18 25 27 30 26 33 34 36 34 31 34 29 36 33 34 36 36 36 37 35 36 36 36 37 28 16 13 14 11 20 25 22 18 15 15 14 14 14
10 8 12 9 13 15 24 24 24 23 27 24 29 30 34 29 30 28 29 31 32 33 34 32 31 30 31 32 32 32 19 17 15 12 9 26 27 23 19 18 17 16 15
Wind_Direction
11 355 346 340 179 176 176 170 178 179 167 168 169 166 163 162 163 161 158 156 152 150 151 149 144 139 139 139 134 134 131 124 122 119 117 118 116 116 113 97 93 93 98
4 360 336 341 223 179 186 175 181 183 173 173 174 174 169 164 162 161 161 158 152 148 149 156 152 148 140 133 128 125 120 118 114 110 113 117 114 108 109 94 95 95 97
23 1 342 329 335 189 184 185 186 187 186 183 172 184 175 170 166 166 161 148 138 133 132 134 144 155 152 142 127 119 114 107 100 101 108 117 121 114 107 108 107 110 107
36 4 329 325 325 202 188 193 193 193 195 194 191 188 181 178 173 169 162 154 150 145 151 153 141 144 154 150 138 124 117 108 104 107 101 106 114 120 122 119 121 119 117
79 22 305 297 306 287 198 198 203 200 198 198 198 191 182 182 179 179 173 162 162 166 168 177 167 156 153 150 144 132 126 136 141 136 125 128 113 120 127 127 136 116 103
303 246 354 261 272 282 235 208 206 209 205 202 200 195 186 183 182 184 178 175 174 184 195 193 183 172 160 153 145 138 140 139 136 150 142 151 132 122 134 138 138 120 89
297 304 266 272 249 251 279 224 213 208 208 203 198 196 189 187 185 181 184 187 193 201 215 211 189 177 167 157 147 151 147 153 153 164 175 167 154 137 135 152 186 353 1
295 311 278 261 255 249 257 244 218 210 207 208 203 198 189 187 185 194 193 199 207 216 222 208 187 176 170 158 155 158 162 157 155 181 190 179 138 126 120 154 141 79 77
295 294 295 261 254 249 244 255 229 216 214 213 208 199 193 189 198 201 200 203 211 222 217 198 185 177 163 159 159 161 170 166 172 181 172 174 182 171 204 230 109 97 87
289 291 294 255 248 251 237 239 238 226 218 217 210 200 197 202 215 210 204 210 216 219 207 191 183 178 169 165 161 167 170 169 172 172 169 185 201 248 154 123 117 106 102
292 298 295 265 249 242 244 234 235 231 225 219 214 205 202 213 213 218 209 215 216 208 200 187 180 176 171 166 168 167 173 172 173 176 182 193 193 130 120 120 114 117 113
286 291 293 279 257 243 243 243 233 228 227 220 215 209 210 219 226 211 208 211 205 189 177 172 174 170 170 168 170 167 173 169 169 183 200 196 139 127 122 124 123 132 125
284 280 286 279 264 254 239 244 241 229 226 222 218 214 212 223 209 210 209 199 186 175 172 175 179 166 167 169 168 171 175 181 177 177 189 163 140 124 122 123 133 146 140
275 275 278 274 270 260 250 248 240 229 225 227 219 217 215 218 210 212 208 193 179 178 176 175 172 163 166 167 164 175 178 186 198 210 194 140 145 135 134 135 145 131 127
271 259 268 272 267 255 248 244 237 230 210 214 213 217 215 218 213 211 204 191 179 182 177 178 165 159 152 156 173 192 189 192 200 211 169 143 147 141 138 142 129 136 131
275 255 255 269 265 258 246 244 236 225 230 194 225 211 215 217 214 206 204 190 180 183 182 174 161 161 159 160 173 184 187 197 206 200 168 148 144 154 154 150 141 134 134
269 259 263 272 262 258 247 245 241 244 247 243 280 300 208 212 207 206 203 189 181 182 181 168 172 176 178 173 184 188 192 199 206 189 171 156 151 144 139 143 136 132 131
269 262 271 272 262 259 245 247 250 255 250 253 259 296 195 204 206 204 200 188 179 185 183 174 179 176 179 183 184 188 193 203 196 188 179 162 159 157 156 154 149 136 136
278 267 263 263 262 260 248 253 252 263 240 234 237 281 194 200 203 202 194 184 180 185 185 179 181 186 182 185 183 183 193 202 190 176 180 177 176 175 177 173 165 159 150
274 263 260 258 259 253 251 253 247 252 236 227 256 212 192 191 198 197 187 178 182 186 186 187 188 183 184 184 182 183 183 189 196 188 182 186 190 190 191 189 182 174 168
281 269 264 259 257 250 252 245 237 238 226 206 246 191 175 187 191 188 184 180 186 187 186 189 184 183 185 190 182 177 178 187 192 203 202 199 193 188 192 193 194 192 188
263 270 258 250 259 257 249 237 228 208 206 217 202 271 165 176 186 184 183 186 185 187 193 189 189 184 186 191 187 177 169 185 195 198 205 209 216 206 199 200 198 199 198
276 267 267 261 253 255 245 237 228 226 201 202 214 240 223 181 181 187 189 192 191 192 192 193 194 195 189 191 199 179 162 190 189 199 210 210 204 211 206 207 208 209 204
305 270 229 313 273 269 269 241 238 243 210 193 196 208 197 182 192 188 190 192 198 197 198 198 199 204 201 193 195 192 194 193 176 189 205 212 213 212 213 212 220 224 223
304 323 206 334 331 244 263 226 230 209 202 191 182 181 185 183 194 187 190 193 198 199 201 203 202 204 207 203 194 194 194 189 189 183 194 201 209 216 221 223 226 232 237
301 295 222 354 341 235 241 224 224 203 196 190 179 169 167 174 194 187 192 197 201 199 199 201 205 207 208 209 205 200 204 194 192 197 193 204 207 211 218 226 226 233 236